PSLV R/B

基本信息
目录编号:
44104
目录名称:
PSLV R/B
国际标识:
2019-018AC
轨道中心:
EARTH
物体状态:
已陨落(2024-06-30)
发射日期:
2019-04-01 UTC
国别:
印度 (IN)
轨道信息
数据来源: 国际轨道数据
星历时间: 2024-06-30T23:15:16+0800
半长轴: 6479.285km
偏心率: 0.001443
轨道倾角: 97.331°
近地点辐角: 174.929°
升交点赤经: 295.729°
平近点角: 243.007°
近地点: 91.8km
远地点: 110.5km
周期: 86.507分钟
每日圈数: 16.646087
详细信息
发射场:
SRI
轨道高度:
LEO
数据来源:
AOE Integration Group
参考系:
TEME
时间系统:
UTC
历元类型:
SGP4
2D轨道图
3D轨道图
轨道高度分析图
轨道倾角分析图
轨道综合分析图
查看轨道综合分析图